Volver al catálogo

IRIDIUM 33 DEB

ActivoPO
NORAD 35846·DEBRIS·🇺🇸 United States

Lanzado Sep 14, 1997 desde Baikonur Cosmodrome

Loading…

Próximos Pases (próximas 24 horas)

TLE

ActualizadoSource: Space-Track

Época: Sep 14, 2026, 13:22 UTC

1 35846U 97051SW  26257.55701645  .00000971  00000-0  27773-3 0  9999
2 35846  86.3731 301.0677 0016831 350.2464   9.8408 14.44071753753081

Sigue IRIDIUM 33 DEB en tiempo real con AllMySat

Download on the App Store